Time,TemperatureF,DewpointF,PressureIn,WindDirection,WindDirectionDegrees,WindSpeedMPH,WindSpeedGustMPH,Humidity,HourlyPrecipIn,Conditions,Clouds,dailyrainin,SoftwareType,DateUTC
2013-05-28 00:00:00,45.2,43.3,30.17,WSW,244,0.0,0.0,93,0.00,CLR,,0.00,WeatherDisplay:10.37,2013-05-28 04:00:00,
2013-05-28 00:05:00,45.1,43.2,30.17,WSW,244,0.0,0.0,93,0.00,CLR,,0.00,WeatherDisplay:10.37,2013-05-28 04:05:00,
2013-05-28 00:10:00,44.9,43.0,30.17,WSW,244,0.0,0.0,93,0.00,CLR,,0.00,WeatherDisplay:10.37,2013-05-28 04:10:00,
2013-05-28 00:15:00,44.7,42.8,30.17,WSW,244,0.0,0.0,93,0.00,CLR,,0.00,WeatherDisplay:10.37,2013-05-28 04:15:00,
2013-05-28 00:20:00,44.5,42.6,30.17,WSW,244,0.0,0.0,93,0.00,CLR,,0.00,WeatherDisplay:10.37,2013-05-28 04:20:00,
2013-05-28 00:25:00,44.4,42.5,30.18,WSW,244,0.0,0.0,93,0.00,CLR,,0.00,WeatherDisplay:10.37,2013-05-28 04:25:00,
2013-05-28 00:30:00,44.3,42.4,30.18,WSW,244,0.0,0.0,93,0.00,CLR,,0.00,WeatherDisplay:10.37,2013-05-28 04:30:00,
2013-05-28 00:35:00,44.1,42.2,30.18,WSW,244,0.0,0.0,93,0.00,CLR,,0.00,WeatherDisplay:10.37,2013-05-28 04:35:00,
2013-05-28 00:45:00,43.9,42.3,30.18,WSW,244,0.0,0.0,94,0.00,CLR,,0.00,WeatherDisplay:10.37,2013-05-28 04:45:00,
2013-05-28 00:50:00,43.8,42.1,30.18,WSW,244,0.0,0.0,94,0.00,CLR,,0.00,WeatherDisplay:10.37,2013-05-28 04:50:00,
2013-05-28 00:55:00,43.7,42.0,30.18,WSW,244,0.0,0.0,94,0.00,CLR,,0.00,WeatherDisplay:10.37,2013-05-28 04:55:00,
2013-05-28 01:00:00,43.6,42.0,30.18,WSW,244,0.0,0.0,94,0.00,CLR,,0.00,WeatherDisplay:10.37,2013-05-28 05:00:00,
2013-05-28 01:05:00,43.4,41.8,30.19,WSW,244,0.0,0.0,94,0.00,CLR,,0.00,WeatherDisplay:10.37,2013-05-28 05:05:00,
2013-05-28 01:10:00,43.3,41.7,30.19,WSW,244,0.0,0.0,94,0.00,CLR,,0.00,WeatherDisplay:10.37,2013-05-28 05:10:00,
2013-05-28 01:15:00,43.2,41.6,30.19,WSW,244,0.0,0.0,94,0.00,CLR,,0.00,WeatherDisplay:10.37,2013-05-28 05:15:00,
2013-05-28 01:20:00,43.1,41.5,30.19,WSW,244,0.0,0.0,94,0.00,CLR,,0.00,WeatherDisplay:10.37,2013-05-28 05:20:00,
2013-05-28 01:25:00,43.0,41.4,30.19,WSW,244,0.0,0.0,94,0.00,CLR,,0.00,WeatherDisplay:10.37,2013-05-28 05:25:00,
2013-05-28 01:30:00,42.9,41.3,30.19,WSW,244,0.0,0.0,94,0.00,CLR,,0.00,WeatherDisplay:10.37,2013-05-28 05:30:00,
2013-05-28 01:35:00,42.8,41.2,30.19,WSW,244,0.0,0.0,94,0.00,CLR,,0.00,WeatherDisplay:10.37,2013-05-28 05:35:00,
2013-05-28 01:40:00,42.7,41.1,30.19,WSW,244,0.0,0.0,94,0.00,CLR,,0.00,WeatherDisplay:10.37,2013-05-28 05:40:00,
2013-05-28 01:45:00,42.5,40.9,30.19,WSW,244,0.0,0.0,94,0.00,CLR,,0.00,WeatherDisplay:10.37,2013-05-28 05:45:00,
2013-05-28 01:50:00,42.4,40.8,30.19,WSW,244,0.0,0.0,94,0.00,CLR,,0.00,WeatherDisplay:10.37,2013-05-28 05:50:00,
2013-05-28 01:55:00,42.3,40.7,30.20,WSW,244,0.0,0.0,94,0.00,CLR,,0.00,WeatherDisplay:10.37,2013-05-28 05:55:00,
2013-05-28 02:00:00,42.2,40.6,30.20,WSW,244,0.0,0.0,94,0.00,CLR,,0.00,WeatherDisplay:10.37,2013-05-28 06:00:00,
2013-05-28 02:05:00,42.1,40.5,30.20,WSW,244,0.0,0.0,94,0.00,CLR,,0.00,WeatherDisplay:10.37,2013-05-28 06:05:00,
2013-05-28 02:10:00,42.0,40.4,30.20,WSW,244,0.0,0.0,94,0.00,CLR,,0.00,WeatherDisplay:10.37,2013-05-28 06:10:00,
2013-05-28 02:15:00,41.9,40.3,30.20,WSW,244,0.0,0.0,94,0.00,CLR,,0.00,WeatherDisplay:10.37,2013-05-28 06:15:00,
2013-05-28 02:20:00,41.8,40.2,30.20,WSW,244,0.0,0.0,94,0.00,CLR,,0.00,WeatherDisplay:10.37,2013-05-28 06:20:00,
2013-05-28 02:25:00,41.6,40.0,30.20,WSW,244,0.0,0.0,94,0.00,CLR,,0.00,WeatherDisplay:10.37,2013-05-28 06:25:00,
2013-05-28 02:30:00,41.6,40.0,30.20,WSW,244,0.0,0.0,94,0.00,CLR,,0.00,WeatherDisplay:10.37,2013-05-28 06:30:00,
2013-05-28 02:35:00,41.5,39.9,30.19,WSW,244,0.0,0.0,94,0.00,CLR,,0.00,WeatherDisplay:10.37,2013-05-28 06:35:00,
2013-05-28 02:40:00,41.4,40.1,30.19,WSW,244,0.0,0.0,95,0.00,CLR,,0.00,WeatherDisplay:10.37,2013-05-28 06:40:00,
2013-05-28 02:50:00,41.2,39.9,30.19,WSW,244,0.0,0.0,95,0.00,CLR,,0.00,WeatherDisplay:10.37,2013-05-28 06:50:00,
2013-05-28 02:55:00,41.0,39.4,30.19,WSW,244,0.0,0.0,94,0.00,CLR,,0.00,WeatherDisplay:10.37,2013-05-28 06:55:00,
2013-05-28 03:00:00,40.9,39.3,30.19,WSW,244,0.0,0.0,94,0.00,CLR,,0.00,WeatherDisplay:10.37,2013-05-28 07:00:00,
2013-05-28 03:05:00,40.8,39.5,30.19,WSW,244,0.0,0.0,95,0.00,CLR,,0.00,WeatherDisplay:10.37,2013-05-28 07:05:00,
2013-05-28 03:10:00,40.8,39.5,30.19,WSW,244,0.0,0.0,95,0.00,CLR,,0.00,WeatherDisplay:10.37,2013-05-28 07:10:00,
2013-05-28 03:15:00,40.7,39.4,30.19,WSW,244,0.0,0.0,95,0.00,CLR,,0.00,WeatherDisplay:10.37,2013-05-28 07:15:00,
2013-05-28 03:20:00,40.6,39.3,30.19,WSW,244,0.0,0.0,95,0.00,CLR,,0.00,WeatherDisplay:10.37,2013-05-28 07:20:00,
2013-05-28 03:25:00,40.6,39.3,30.19,WSW,244,0.0,0.0,95,0.00,CLR,,0.00,WeatherDisplay:10.37,2013-05-28 07:25:00,
2013-05-28 03:30:00,40.5,39.2,30.19,WSW,244,0.0,0.0,95,0.00,CLR,,0.00,WeatherDisplay:10.37,2013-05-28 07:30:00,
2013-05-28 03:35:00,40.4,39.1,30.19,WSW,244,0.0,0.0,95,0.00,CLR,,0.00,WeatherDisplay:10.37,2013-05-28 07:35:00,
2013-05-28 03:40:00,40.4,39.1,30.19,WSW,244,0.0,0.0,95,0.00,CLR,,0.00,WeatherDisplay:10.37,2013-05-28 07:40:00,
2013-05-28 03:45:00,40.2,38.9,30.19,WSW,244,0.0,0.0,95,0.00,CLR,,0.00,WeatherDisplay:10.37,2013-05-28 07:45:00,
2013-05-28 03:50:00,40.2,38.9,30.19,WSW,244,0.0,0.0,95,0.00,CLR,,0.00,WeatherDisplay:10.37,2013-05-28 07:50:00,
2013-05-28 03:55:00,40.1,38.8,30.19,WSW,244,0.0,0.0,95,0.00,CLR,,0.00,WeatherDisplay:10.37,2013-05-28 07:55:00,
2013-05-28 04:00:00,40.1,38.8,30.19,WSW,244,0.0,0.0,95,0.00,CLR,,0.00,WeatherDisplay:10.37,2013-05-28 08:00:00,
2013-05-28 04:05:00,40.0,38.7,30.19,WSW,244,0.0,0.0,95,0.00,CLR,,0.00,WeatherDisplay:10.37,2013-05-28 08:05:00,
2013-05-28 04:10:00,39.9,38.6,30.19,WSW,244,0.0,0.0,95,0.00,CLR,,0.00,WeatherDisplay:10.37,2013-05-28 08:10:00,
2013-05-28 04:15:00,39.8,38.5,30.19,WSW,244,0.0,0.0,95,0.00,CLR,,0.00,WeatherDisplay:10.37,2013-05-28 08:15:00,
2013-05-28 04:20:00,39.7,38.4,30.19,WSW,244,0.0,0.0,95,0.00,CLR,,0.00,WeatherDisplay:10.37,2013-05-28 08:20:00,
2013-05-28 04:25:00,39.6,38.3,30.20,WSW,244,0.0,0.0,95,0.00,CLR,,0.00,WeatherDisplay:10.37,2013-05-28 08:25:00,
2013-05-28 04:30:00,39.5,38.2,30.20,WSW,244,0.0,0.0,95,0.00,CLR,,0.00,WeatherDisplay:10.37,2013-05-28 08:30:00,
2013-05-28 04:35:00,39.5,38.2,30.20,WSW,244,0.0,0.0,95,0.00,CLR,,0.00,WeatherDisplay:10.37,2013-05-28 08:35:00,
2013-05-28 04:40:00,39.4,38.1,30.20,WSW,244,0.0,0.0,95,0.00,CLR,,0.00,WeatherDisplay:10.37,2013-05-28 08:40:00,
2013-05-28 04:45:00,39.3,38.0,30.20,WSW,244,0.0,0.0,95,0.00,CLR,,0.00,WeatherDisplay:10.37,2013-05-28 08:45:00,
2013-05-28 04:50:00,39.3,38.0,30.20,WSW,244,0.0,0.0,95,0.00,CLR,,0.00,WeatherDisplay:10.37,2013-05-28 08:50:00,
2013-05-28 04:55:00,39.2,37.9,30.20,WSW,244,0.0,0.0,95,0.00,CLR,,0.00,WeatherDisplay:10.37,2013-05-28 08:55:00,
2013-05-28 05:00:00,39.1,37.8,30.20,WSW,244,0.0,0.0,95,0.00,CLR,,0.00,WeatherDisplay:10.37,2013-05-28 09:00:00,
2013-05-28 05:05:00,39.0,37.7,30.20,WSW,244,0.0,0.0,95,0.00,CLR,,0.00,WeatherDisplay:10.37,2013-05-28 09:05:00,
2013-05-28 05:10:00,38.9,37.6,30.20,WSW,244,0.0,0.0,95,0.00,CLR,,0.00,WeatherDisplay:10.37,2013-05-28 09:10:00,
2013-05-28 05:15:00,38.8,37.5,30.21,WSW,244,0.0,0.0,95,0.00,CLR,,0.00,WeatherDisplay:10.37,2013-05-28 09:15:00,
2013-05-28 05:20:00,38.8,37.5,30.21,WSW,244,0.0,0.0,95,0.00,CLR,,0.00,WeatherDisplay:10.37,2013-05-28 09:20:00,
2013-05-28 05:25:00,38.8,37.5,30.20,WSW,244,0.0,0.0,95,0.00,CLR,,0.00,WeatherDisplay:10.37,2013-05-28 09:25:00,
2013-05-28 05:30:00,38.7,37.4,30.21,WSW,244,0.0,0.0,95,0.00,CLR,,0.00,WeatherDisplay:10.37,2013-05-28 09:30:00,
2013-05-28 05:35:00,38.7,37.4,30.21,WSW,244,0.0,0.0,95,0.00,CLR,,0.00,WeatherDisplay:10.37,2013-05-28 09:35:00,
2013-05-28 05:40:00,38.7,37.4,30.21,WSW,244,0.0,0.0,95,0.00,CLR,,0.00,WeatherDisplay:10.37,2013-05-28 09:40:00,
2013-05-28 05:45:00,38.8,37.5,30.21,WSW,244,0.0,0.0,95,0.00,CLR,,0.00,WeatherDisplay:10.37,2013-05-28 09:45:00,
2013-05-28 05:50:00,38.8,37.8,30.21,WSW,244,0.0,0.0,96,0.00,CLR,,0.00,WeatherDisplay:10.37,2013-05-28 09:50:00,
2013-05-28 05:55:00,38.8,37.8,30.21,WSW,244,0.0,0.0,96,0.00,CLR,,0.00,WeatherDisplay:10.37,2013-05-28 09:55:00,
2013-05-28 06:00:00,38.9,37.9,30.22,WSW,244,0.0,0.0,96,0.00,CLR,,0.00,WeatherDisplay:10.37,2013-05-28 10:00:00,
2013-05-28 06:05:00,38.9,37.9,30.22,WSW,244,0.0,0.0,96,0.00,CLR,,0.00,WeatherDisplay:10.37,2013-05-28 10:05:00,
2013-05-28 06:10:00,39.1,38.0,30.22,WSW,244,0.0,0.0,96,0.00,CLR,,0.00,WeatherDisplay:10.37,2013-05-28 10:10:00,
2013-05-28 06:15:00,39.1,38.1,30.22,WSW,244,0.0,0.0,96,0.00,CLR,,0.00,WeatherDisplay:10.37,2013-05-28 10:15:00,
2013-05-28 06:20:00,39.2,38.2,30.22,WSW,244,0.0,0.0,96,0.00,CLR,,0.00,WeatherDisplay:10.37,2013-05-28 10:20:00,
2013-05-28 06:25:00,39.3,38.3,30.22,WSW,244,0.0,0.0,96,0.00,CLR,,0.00,WeatherDisplay:10.37,2013-05-28 10:25:00,
2013-05-28 06:30:00,39.4,38.4,30.22,WSW,244,0.0,0.0,96,0.00,CLR,,0.00,WeatherDisplay:10.37,2013-05-28 10:30:00,
2013-05-28 06:35:00,39.6,38.5,30.22,WSW,244,0.0,0.0,96,0.00,CLR,,0.00,WeatherDisplay:10.37,2013-05-28 10:35:00,
2013-05-28 06:40:00,39.7,38.7,30.22,WSW,244,0.0,0.0,96,0.00,CLR,,0.00,WeatherDisplay:10.37,2013-05-28 10:40:00,
2013-05-28 06:45:00,40.1,39.1,30.23,WSW,244,0.0,0.0,96,0.00,CLR,,0.00,WeatherDisplay:10.37,2013-05-28 10:45:00,
2013-05-28 06:50:00,40.4,39.4,30.23,WSW,244,0.0,0.0,96,0.00,CLR,,0.00,WeatherDisplay:10.37,2013-05-28 10:50:00,
2013-05-28 06:55:00,40.8,39.7,30.23,WSW,244,0.0,0.0,96,0.00,CLR,,0.00,WeatherDisplay:10.37,2013-05-28 10:55:00,
2013-05-28 07:00:00,41.3,40.5,30.23,WSW,244,0.0,0.0,97,0.00,CLR,,0.00,WeatherDisplay:10.37,2013-05-28 11:00:00,
2013-05-28 07:05:00,41.8,41.0,30.23,WSW,244,0.0,0.0,97,0.00,CLR,,0.00,WeatherDisplay:10.37,2013-05-28 11:05:00,
2013-05-28 07:10:00,42.1,41.3,30.23,WSW,244,0.0,0.0,97,0.00,CLR,,0.00,WeatherDisplay:10.37,2013-05-28 11:10:00,
2013-05-28 07:15:00,42.6,41.8,30.23,WSW,244,0.0,0.0,97,0.00,CLR,,0.00,WeatherDisplay:10.37,2013-05-28 11:15:00,
2013-05-28 07:20:00,43.2,42.4,30.23,WSW,244,0.0,0.0,97,0.00,CLR,,0.00,WeatherDisplay:10.37,2013-05-28 11:20:00,
2013-05-28 07:25:00,43.8,43.0,30.23,WSW,244,0.0,0.0,97,0.00,CLR,,0.00,WeatherDisplay:10.37,2013-05-28 11:25:00,
2013-05-28 07:30:00,44.5,43.7,30.23,WSW,244,0.0,0.0,97,0.00,CLR,,0.00,WeatherDisplay:10.37,2013-05-28 11:30:00,
2013-05-28 07:35:00,45.2,44.4,30.23,WSW,244,0.0,0.0,97,0.00,CLR,,0.00,WeatherDisplay:10.37,2013-05-28 11:35:00,
2013-05-28 07:40:00,45.8,45.0,30.23,WSW,247,0.0,0.0,97,0.00,CLR,,0.00,WeatherDisplay:10.37,2013-05-28 11:40:00,
2013-05-28 07:45:00,46.6,45.7,30.23,WSW,252,0.0,0.0,97,0.00,CLR,,0.00,WeatherDisplay:10.37,2013-05-28 11:45:00,
2013-05-28 07:50:00,47.2,46.4,30.23,WSW,254,0.0,0.0,97,0.00,CLR,,0.00,WeatherDisplay:10.37,2013-05-28 11:50:00,
2013-05-28 07:55:00,47.8,47.0,30.23,WSW,254,0.0,0.0,97,0.00,CLR,,0.00,WeatherDisplay:10.37,2013-05-28 11:55:00,
2013-05-28 08:00:00,48.7,47.9,30.23,WSW,256,0.0,2.0,97,0.00,CLR,,0.00,WeatherDisplay:10.37,2013-05-28 12:00:00,
2013-05-28 08:05:00,49.9,49.1,30.23,NW,314,0.0,2.0,97,0.00,CLR,,0.00,WeatherDisplay:10.37,2013-05-28 12:05:00,
2013-05-28 08:10:00,50.9,50.0,30.23,NNE,15,0.0,0.0,97,0.00,CLR,,0.00,WeatherDisplay:10.37,2013-05-28 12:10:00,
2013-05-28 08:15:00,51.4,48.9,30.23,North,8,0.0,1.0,91,0.00,CLR,,0.00,WeatherDisplay:10.37,2013-05-28 12:15:00,
2013-05-28 08:20:00,52.3,49.4,30.23,North,351,0.0,1.0,90,0.00,CLR,,0.00,WeatherDisplay:10.37,2013-05-28 12:20:00,
2013-05-28 08:25:00,53.0,49.5,30.23,NNW,348,0.0,2.0,88,0.00,CLR,,0.00,WeatherDisplay:10.37,2013-05-28 12:25:00,
2013-05-28 08:30:00,53.7,49.9,30.22,NNW,348,0.0,1.0,87,0.00,CLR,,0.00,WeatherDisplay:10.37,2013-05-28 12:30:00,
2013-05-28 08:35:00,54.3,49.3,30.23,NNW,348,0.0,1.0,83,0.00,CLR,,0.00,WeatherDisplay:10.37,2013-05-28 12:35:00,
2013-05-28 08:40:00,55.2,49.8,30.23,NNW,348,0.0,1.0,82,0.00,CLR,,0.00,WeatherDisplay:10.37,2013-05-28 12:40:00,
2013-05-28 08:45:00,56.1,49.0,30.22,NNW,348,0.0,0.0,77,0.00,CLR,,0.00,WeatherDisplay:10.37,2013-05-28 12:45:00,
2013-05-28 08:50:00,56.8,48.6,30.22,NNW,348,0.0,1.0,74,0.00,CLR,,0.00,WeatherDisplay:10.37,2013-05-28 12:50:00,
2013-05-28 08:55:00,57.8,48.9,30.22,North,8,0.0,2.0,72,0.00,CLR,,0.00,WeatherDisplay:10.37,2013-05-28 12:55:00,
2013-05-28 09:00:00,58.8,48.2,30.22,North,7,0.0,0.0,68,0.00,CLR,,0.00,WeatherDisplay:10.37,2013-05-28 13:00:00,
2013-05-28 09:05:00,59.4,48.9,30.22,North,4,0.0,1.0,68,0.00,CLR,,0.00,WeatherDisplay:10.37,2013-05-28 13:05:00,
2013-05-28 09:10:00,60.1,47.9,30.22,NW,317,0.0,3.0,64,0.00,CLR,,0.00,WeatherDisplay:10.37,2013-05-28 13:10:00,
2013-05-28 09:15:00,60.8,46.8,30.22,West,260,0.0,2.0,60,0.00,CLR,,0.00,WeatherDisplay:10.37,2013-05-28 13:15:00,
2013-05-28 09:20:00,61.4,46.9,30.22,SW,229,1.0,2.0,59,0.00,CLR,,0.00,WeatherDisplay:10.37,2013-05-28 13:20:00,
2013-05-28 09:25:00,61.9,44.1,30.22,ESE,112,2.0,4.0,52,0.00,CLR,,0.00,WeatherDisplay:10.37,2013-05-28 13:25:00,
2013-05-28 09:30:00,62.6,46.2,30.22,NE,56,0.0,3.0,55,0.00,CLR,,0.00,WeatherDisplay:10.37,2013-05-28 13:30:00,
2013-05-28 09:35:00,63.1,43.6,30.22,SE,141,1.0,4.0,49,0.00,CLR,,0.00,WeatherDisplay:10.37,2013-05-28 13:35:00,
2013-05-28 09:40:00,63.4,44.4,30.22,SSW,200,0.0,4.0,50,0.00,CLR,,0.00,WeatherDisplay:10.37,2013-05-28 13:40:00,
2013-05-28 09:45:00,63.8,42.6,30.22,SSW,193,1.0,3.0,46,0.00,CLR,,0.00,WeatherDisplay:10.37,2013-05-28 13:45:00,
2013-05-28 09:50:00,64.3,42.5,30.22,East,79,0.0,6.0,45,0.00,CLR,,0.00,WeatherDisplay:10.37,2013-05-28 13:50:00,
2013-05-28 09:55:00,64.6,42.2,30.22,ENE,66,1.0,4.0,44,0.00,CLR,,0.00,WeatherDisplay:10.37,2013-05-28 13:55:00,
2013-05-28 10:00:00,64.9,43.0,30.22,East,86,1.0,4.0,45,0.00,CLR,,0.00,WeatherDisplay:10.37,2013-05-28 14:00:00,
2013-05-28 10:05:00,65.2,41.5,30.22,ENE,66,2.0,5.0,42,0.00,CLR,,0.00,WeatherDisplay:10.37,2013-05-28 14:05:00,
2013-05-28 10:10:00,65.5,44.2,30.22,NE,55,0.0,5.0,46,0.00,CLR,,0.00,WeatherDisplay:10.37,2013-05-28 14:10:00,
2013-05-28 10:15:00,65.7,40.7,30.22,ESE,115,0.0,7.0,40,0.00,CLR,,0.00,WeatherDisplay:10.37,2013-05-28 14:15:00,
2013-05-28 10:20:00,65.9,43.9,30.22,SSW,199,0.0,2.0,45,0.00,CLR,,0.00,WeatherDisplay:10.37,2013-05-28 14:20:00,
2013-05-28 10:25:00,66.2,42.4,30.22,ENE,66,0.0,2.0,42,0.00,CLR,,0.00,WeatherDisplay:10.37,2013-05-28 14:25:00,
2013-05-28 10:30:00,66.4,42.6,30.22,ENE,78,3.0,7.0,42,0.00,CLR,,0.00,WeatherDisplay:10.37,2013-05-28 14:30:00,
2013-05-28 10:35:00,66.4,42.6,30.22,NNE,33,1.0,7.0,42,0.00,CLR,,0.00,WeatherDisplay:10.37,2013-05-28 14:35:00,
2013-05-28 10:40:00,66.5,42.1,30.22,NE,41,1.0,5.0,41,0.00,CLR,,0.00,WeatherDisplay:10.37,2013-05-28 14:40:00,
2013-05-28 10:45:00,66.6,44.0,30.22,ENE,67,0.0,5.0,44,0.00,CLR,,0.00,WeatherDisplay:10.37,2013-05-28 14:45:00,
2013-05-28 10:50:00,66.8,44.8,30.22,ENE,68,1.0,4.0,45,0.00,CLR,,0.00,WeatherDisplay:10.37,2013-05-28 14:50:00,
2013-05-28 10:55:00,67.0,43.1,30.22,ENE,77,0.0,3.0,42,0.00,CLR,,0.00,WeatherDisplay:10.37,2013-05-28 14:55:00,
2013-05-28 11:00:00,67.2,42.0,30.22,ENE,73,1.0,7.0,40,0.00,CLR,,0.00,WeatherDisplay:10.37,2013-05-28 15:00:00,
2013-05-28 11:05:00,67.3,41.5,30.22,ESE,120,0.0,3.0,39,0.00,CLR,,0.00,WeatherDisplay:10.37,2013-05-28 15:05:00,
2013-05-28 11:10:00,67.4,41.6,30.22,ESE,105,2.0,5.0,39,0.00,CLR,,0.00,WeatherDisplay:10.37,2013-05-28 15:10:00,
2013-05-28 11:15:00,67.6,43.7,30.22,SE,137,0.0,3.0,42,0.00,CLR,,0.00,WeatherDisplay:10.37,2013-05-28 15:15:00,
2013-05-28 11:20:00,67.7,42.5,30.22,SW,224,0.0,6.0,40,0.00,CLR,,0.00,WeatherDisplay:10.37,2013-05-28 15:20:00,
2013-05-28 11:25:00,67.9,46.3,30.22,SW,234,0.0,3.0,46,0.00,CLR,,0.00,WeatherDisplay:10.37,2013-05-28 15:25:00,
2013-05-28 11:30:00,68.2,45.4,30.22,West,279,0.0,4.0,44,0.00,CLR,,0.00,WeatherDisplay:10.37,2013-05-28 15:30:00,
2013-05-28 11:35:00,68.3,45.5,30.22,West,268,0.0,4.0,44,0.00,CLR,,0.00,WeatherDisplay:10.37,2013-05-28 15:35:00,
2013-05-28 11:40:00,68.3,44.3,30.22,SW,225,1.0,4.0,42,0.00,CLR,,0.00,WeatherDisplay:10.37,2013-05-28 15:40:00,
2013-05-28 11:45:00,68.4,44.4,30.22,SW,217,1.0,6.0,42,0.00,CLR,,0.00,WeatherDisplay:10.37,2013-05-28 15:45:00,
2013-05-28 11:50:00,68.6,43.3,30.22,NW,304,2.0,5.0,40,0.00,CLR,,0.00,WeatherDisplay:10.37,2013-05-28 15:50:00,
2013-05-28 11:55:00,68.7,42.7,30.22,ESE,113,1.0,4.0,39,0.00,CLR,,0.00,WeatherDisplay:10.37,2013-05-28 15:55:00,
2013-05-28 12:00:00,68.8,44.8,30.22,ESE,113,2.0,4.0,42,0.00,CLR,,0.00,WeatherDisplay:10.37,2013-05-28 16:00:00,
2013-05-28 12:05:00,68.9,46.1,30.22,NE,36,0.0,2.0,44,0.00,CLR,,0.00,WeatherDisplay:10.37,2013-05-28 16:05:00,
2013-05-28 12:10:00,69.2,44.5,30.22,South,188,1.0,4.0,41,0.00,CLR,,0.00,WeatherDisplay:10.37,2013-05-28 16:10:00,
2013-05-28 12:15:00,69.4,43.4,30.22,SSW,193,1.0,5.0,39,0.00,CLR,,0.00,WeatherDisplay:10.37,2013-05-28 16:15:00,
2013-05-28 12:20:00,69.5,43.4,30.22,SW,219,0.0,4.0,39,0.00,CLR,,0.00,WeatherDisplay:10.37,2013-05-28 16:20:00,
2013-05-28 12:25:00,69.7,44.3,30.21,West,265,1.0,3.0,40,0.00,CLR,,0.00,WeatherDisplay:10.37,2013-05-28 16:25:00,
2013-05-28 12:30:00,69.8,47.5,30.21,WSW,253,1.0,3.0,45,0.00,CLR,,0.00,WeatherDisplay:10.37,2013-05-28 16:30:00,
2013-05-28 12:35:00,70.1,45.9,30.21,South,180,0.0,4.0,42,0.00,CLR,,0.00,WeatherDisplay:10.37,2013-05-28 16:35:00,
2013-05-28 12:40:00,70.2,44.0,30.20,South,172,2.0,4.0,39,0.00,CLR,,0.00,WeatherDisplay:10.37,2013-05-28 16:40:00,
2013-05-28 12:45:00,70.1,45.3,30.20,WSW,239,3.0,6.0,41,0.00,CLR,,0.00,WeatherDisplay:10.37,2013-05-28 16:45:00,
2013-05-28 12:50:00,70.3,45.5,30.20,SSW,208,1.0,5.0,41,0.00,CLR,,0.00,WeatherDisplay:10.37,2013-05-28 16:50:00,
2013-05-28 12:55:00,70.5,45.0,30.20,ESE,110,1.0,7.0,40,0.00,CLR,,0.00,WeatherDisplay:10.37,2013-05-28 16:55:00,
2013-05-28 13:00:00,70.6,44.4,30.20,SSE,167,1.0,5.0,39,0.00,CLR,,0.00,WeatherDisplay:10.37,2013-05-28 17:00:00,
2013-05-28 13:05:00,70.7,44.5,30.20,SSE,162,0.0,1.0,39,0.00,CLR,,0.00,WeatherDisplay:10.37,2013-05-28 17:05:00,
2013-05-28 13:10:00,70.9,42.6,30.20,ENE,73,2.0,4.0,36,0.00,CLR,,0.00,WeatherDisplay:10.37,2013-05-28 17:10:00,
2013-05-28 13:15:00,71.0,43.4,30.20,East,83,0.0,3.0,37,0.00,CLR,,0.00,WeatherDisplay:10.37,2013-05-28 17:15:00,
2013-05-28 13:20:00,71.2,42.1,30.20,East,80,2.0,5.0,35,0.00,CLR,,0.00,WeatherDisplay:10.37,2013-05-28 17:20:00,
2013-05-28 13:25:00,71.2,41.4,30.19,NE,52,2.0,7.0,34,0.00,CLR,,0.00,WeatherDisplay:10.37,2013-05-28 17:25:00,
2013-05-28 13:30:00,71.0,43.4,30.19,ENE,65,1.0,6.0,37,0.00,CLR,,0.00,WeatherDisplay:10.37,2013-05-28 17:30:00,
2013-05-28 13:35:00,70.8,40.3,30.19,ENE,78,0.0,3.0,33,0.00,CLR,,0.00,WeatherDisplay:10.37,2013-05-28 17:35:00,
2013-05-28 13:40:00,70.8,41.0,30.19,ESE,106,2.0,5.0,34,0.00,CLR,,0.00,WeatherDisplay:10.37,2013-05-28 17:40:00,
2013-05-28 13:45:00,70.8,42.5,30.19,SSE,164,1.0,5.0,36,0.00,CLR,,0.00,WeatherDisplay:10.37,2013-05-28 17:45:00,
2013-05-28 13:50:00,71.0,43.4,30.18,South,183,1.0,3.0,37,0.00,CLR,,0.00,WeatherDisplay:10.37,2013-05-28 17:50:00,
2013-05-28 13:55:00,71.4,44.5,30.18,ESE,113,3.0,6.0,38,0.00,CLR,,0.00,WeatherDisplay:10.37,2013-05-28 17:55:00,
2013-05-28 14:00:00,71.7,44.0,30.18,ESE,105,1.0,3.0,37,0.00,CLR,,0.00,WeatherDisplay:10.37,2013-05-28 18:00:00,
2013-05-28 14:05:00,71.7,42.6,30.18,East,94,0.0,3.0,35,0.00,CLR,,0.00,WeatherDisplay:10.37,2013-05-28 18:05:00,
2013-05-28 14:10:00,71.6,42.5,30.18,ENE,72,0.0,3.0,35,0.00,CLR,,0.00,WeatherDisplay:10.37,2013-05-28 18:10:00,
2013-05-28 14:15:00,71.6,44.6,30.18,East,82,1.0,4.0,38,0.00,CLR,,0.00,WeatherDisplay:10.37,2013-05-28 18:15:00,
2013-05-28 14:20:00,71.8,44.1,30.18,South,169,2.0,6.0,37,0.00,CLR,,0.00,WeatherDisplay:10.37,2013-05-28 18:20:00,
2013-05-28 14:25:00,71.9,44.2,30.17,South,186,2.0,6.0,37,0.00,CLR,,0.00,WeatherDisplay:10.37,2013-05-28 18:25:00,
2013-05-28 14:30:00,72.0,45.7,30.18,SSW,192,1.0,4.0,39,0.00,CLR,,0.00,WeatherDisplay:10.37,2013-05-28 18:30:00,
2013-05-28 14:35:00,72.0,43.6,30.18,SSW,211,2.0,6.0,36,0.00,CLR,,0.00,WeatherDisplay:10.37,2013-05-28 18:35:00,
2013-05-28 14:40:00,72.2,45.8,30.18,SSW,195,0.0,2.0,39,0.00,CLR,,0.00,WeatherDisplay:10.37,2013-05-28 18:40:00,
2013-05-28 14:50:00,72.0,42.1,30.17,ENE,59,1.0,4.0,34,0.00,CLR,,0.00,WeatherDisplay:10.37,2013-05-28 18:50:00,
2013-05-28 14:55:00,71.8,41.9,30.17,NE,56,0.0,2.0,34,0.00,CLR,,0.00,WeatherDisplay:10.37,2013-05-28 18:55:00,
2013-05-28 15:00:00,71.8,43.4,30.17,SSE,162,0.0,2.0,36,0.00,CLR,,0.00,WeatherDisplay:10.37,2013-05-28 19:00:00,
2013-05-28 15:05:00,72.1,46.5,30.17,South,175,0.0,3.0,40,0.00,CLR,,0.00,WeatherDisplay:10.37,2013-05-28 19:05:00,
2013-05-28 15:10:00,72.5,44.7,30.17,SSE,147,0.0,3.0,37,0.00,CLR,,0.00,WeatherDisplay:10.37,2013-05-28 19:10:00,
2013-05-28 15:15:00,72.7,48.3,30.17,ESE,106,0.0,2.0,42,0.00,CLR,,0.00,WeatherDisplay:10.37,2013-05-28 19:15:00,
2013-05-28 15:20:00,72.7,43.5,30.17,East,80,2.0,5.0,35,0.00,CLR,,0.00,WeatherDisplay:10.37,2013-05-28 19:20:00,
2013-05-28 15:25:00,72.4,44.7,30.17,East,95,1.0,4.0,37,0.00,CLR,,0.00,WeatherDisplay:10.37,2013-05-28 19:25:00,
2013-05-28 15:30:00,72.3,44.6,30.17,East,96,2.0,5.0,37,0.00,CLR,,0.00,WeatherDisplay:10.37,2013-05-28 19:30:00,
2013-05-28 15:35:00,72.4,45.4,30.17,ESE,106,1.0,6.0,38,0.00,CLR,,0.00,WeatherDisplay:10.37,2013-05-28 19:35:00,
2013-05-28 15:40:00,72.6,44.1,30.16,East,96,1.0,5.0,36,0.00,CLR,,0.00,WeatherDisplay:10.37,2013-05-28 19:40:00,
2013-05-28 15:45:00,72.5,43.3,30.16,ENE,63,3.0,8.0,35,0.00,CLR,,0.00,WeatherDisplay:10.37,2013-05-28 19:45:00,
2013-05-28 15:50:00,72.2,44.5,30.16,ENE,75,1.0,5.0,37,0.00,CLR,,0.00,WeatherDisplay:10.37,2013-05-28 19:50:00,
2013-05-28 15:55:00,72.1,47.8,30.16,East,89,0.0,8.0,42,0.00,CLR,,0.00,WeatherDisplay:10.37,2013-05-28 19:55:00,
2013-05-28 16:00:00,72.3,44.6,30.16,East,94,1.0,4.0,37,0.00,CLR,,0.00,WeatherDisplay:10.37,2013-05-28 20:00:00,
2013-05-28 16:05:00,72.5,46.1,30.16,ENE,75,2.0,8.0,39,0.00,CLR,,0.00,WeatherDisplay:10.37,2013-05-28 20:05:00,
2013-05-28 16:10:00,72.4,46.0,30.16,ENE,64,0.0,6.0,39,0.00,CLR,,0.00,WeatherDisplay:10.37,2013-05-28 20:10:00,
2013-05-28 16:15:00,72.2,47.8,30.16,ENE,64,0.0,5.0,42,0.00,CLR,,0.00,WeatherDisplay:10.37,2013-05-28 20:15:00,
2013-05-28 16:20:00,71.8,45.5,30.16,East,80,1.0,3.0,39,0.00,CLR,,0.00,WeatherDisplay:10.37,2013-05-28 20:20:00,
2013-05-28 16:25:00,71.6,46.0,30.16,ESE,112,1.0,5.0,40,0.00,CLR,,0.00,WeatherDisplay:10.37,2013-05-28 20:25:00,
2013-05-28 16:30:00,71.3,44.4,30.16,ESE,105,1.0,6.0,38,0.00,CLR,,0.00,WeatherDisplay:10.37,2013-05-28 20:30:00,
2013-05-28 16:35:00,71.2,45.6,30.16,ESE,102,1.0,5.0,40,0.00,CLR,,0.00,WeatherDisplay:10.37,2013-05-28 20:35:00,
2013-05-28 16:40:00,71.0,46.7,30.16,ESE,113,2.0,8.0,42,0.00,CLR,,0.00,WeatherDisplay:10.37,2013-05-28 20:40:00,
2013-05-28 16:45:00,70.8,44.6,30.16,East,82,2.0,7.0,39,0.00,CLR,,0.00,WeatherDisplay:10.37,2013-05-28 20:45:00,
2013-05-28 16:50:00,70.7,48.3,30.15,East,91,1.0,7.0,45,0.00,CLR,,0.00,WeatherDisplay:10.37,2013-05-28 20:50:00,
2013-05-28 16:55:00,70.4,46.2,30.15,ESE,104,1.0,3.0,42,0.00,CLR,,0.00,WeatherDisplay:10.37,2013-05-28 20:55:00,
2013-05-28 17:00:00,70.2,46.1,30.15,East,79,0.0,5.0,42,0.00,CLR,,0.00,WeatherDisplay:10.37,2013-05-28 21:00:00,
2013-05-28 17:05:00,70.0,45.9,30.15,ENE,77,0.0,5.0,42,0.00,CLR,,0.00,WeatherDisplay:10.37,2013-05-28 21:05:00,
2013-05-28 17:10:00,69.9,45.7,30.15,East,99,2.0,9.0,42,0.00,CLR,,0.00,WeatherDisplay:10.37,2013-05-28 21:10:00,
2013-05-28 17:15:00,69.7,46.2,30.15,East,90,1.0,9.0,43,0.00,CLR,,0.00,WeatherDisplay:10.37,2013-05-28 21:15:00,
2013-05-28 17:20:00,69.5,44.8,30.15,East,99,1.0,3.0,41,0.00,CLR,,0.00,WeatherDisplay:10.37,2013-05-28 21:20:00,
2013-05-28 17:25:00,69.1,46.3,30.15,SE,129,0.0,2.0,44,0.00,CLR,,0.00,WeatherDisplay:10.37,2013-05-28 21:25:00,
2013-05-28 17:30:00,68.8,46.0,30.15,ESE,120,2.0,9.0,44,0.00,CLR,,0.00,WeatherDisplay:10.37,2013-05-28 21:30:00,
2013-05-28 17:35:00,68.5,46.3,30.15,ESE,113,0.0,4.0,45,0.00,CLR,,0.00,WeatherDisplay:10.37,2013-05-28 21:35:00,
2013-05-28 17:40:00,68.1,45.9,30.15,East,100,1.0,5.0,45,0.00,CLR,,0.00,WeatherDisplay:10.37,2013-05-28 21:40:00,
2013-05-28 17:45:00,67.9,45.2,30.15,East,94,0.0,3.0,44,0.00,CLR,,0.00,WeatherDisplay:10.37,2013-05-28 21:45:00,
2013-05-28 17:50:00,67.7,46.2,30.15,ESE,115,0.0,7.0,46,0.00,CLR,,0.00,WeatherDisplay:10.37,2013-05-28 21:50:00,
2013-05-28 17:55:00,67.5,45.4,30.15,ENE,69,1.0,3.0,45,0.00,CLR,,0.00,WeatherDisplay:10.37,2013-05-28 21:55:00,
2013-05-28 18:00:00,67.3,47.5,30.15,NE,45,0.0,2.0,49,0.00,CLR,,0.00,WeatherDisplay:10.37,2013-05-28 22:00:00,
2013-05-28 18:05:00,67.1,46.7,30.15,South,170,1.0,3.0,48,0.00,CLR,,0.00,WeatherDisplay:10.37,2013-05-28 22:05:00,
2013-05-28 18:10:00,66.7,46.4,30.15,South,173,0.0,3.0,48,0.00,CLR,,0.00,WeatherDisplay:10.37,2013-05-28 22:10:00,
2013-05-28 18:15:00,66.2,45.9,30.15,SSE,160,1.0,4.0,48,0.00,CLR,,0.00,WeatherDisplay:10.37,2013-05-28 22:15:00,
2013-05-28 18:20:00,65.8,46.1,30.15,SE,146,0.0,3.0,49,0.00,CLR,,0.00,WeatherDisplay:10.37,2013-05-28 22:20:00,
2013-05-28 18:25:00,65.6,46.5,30.15,ESE,106,0.0,2.0,50,0.00,CLR,,0.00,WeatherDisplay:10.37,2013-05-28 22:25:00,
2013-05-28 18:30:00,65.4,46.8,30.15,SE,132,0.0,2.0,51,0.00,CLR,,0.00,WeatherDisplay:10.37,2013-05-28 22:30:00,
2013-05-28 18:35:00,65.3,45.6,30.15,SSE,158,0.0,0.0,49,0.00,CLR,,0.00,WeatherDisplay:10.37,2013-05-28 22:35:00,
2013-05-28 18:40:00,65.2,47.1,30.15,SSE,147,0.0,2.0,52,0.00,CLR,,0.00,WeatherDisplay:10.37,2013-05-28 22:40:00,
2013-05-28 18:45:00,65.0,47.9,30.15,East,80,0.0,1.0,54,0.00,CLR,,0.00,WeatherDisplay:10.37,2013-05-28 22:45:00,
2013-05-28 18:50:00,64.8,48.2,30.15,ENE,75,0.0,2.0,55,0.00,CLR,,0.00,WeatherDisplay:10.37,2013-05-28 22:50:00,
2013-05-28 18:55:00,64.6,46.1,30.15,East,95,0.0,1.0,51,0.00,CLR,,0.00,WeatherDisplay:10.37,2013-05-28 22:55:00,
2013-05-28 19:00:00,64.5,46.0,30.15,ESE,107,0.0,5.0,51,0.00,CLR,,0.00,WeatherDisplay:10.37,2013-05-28 23:00:00,
2013-05-28 19:05:00,64.3,47.3,30.15,SE,124,0.0,1.0,54,0.00,CLR,,0.00,WeatherDisplay:10.37,2013-05-28 23:05:00,
2013-05-28 19:10:00,64.2,45.7,30.15,ESE,115,1.0,4.0,51,0.00,CLR,,0.00,WeatherDisplay:10.37,2013-05-28 23:10:00,
2013-05-28 19:15:00,64.1,45.1,30.15,SE,146,0.0,2.0,50,0.00,CLR,,0.00,WeatherDisplay:10.37,2013-05-28 23:15:00,
2013-05-28 19:20:00,64.0,46.0,30.15,ESE,122,0.0,2.0,52,0.00,CLR,,0.00,WeatherDisplay:10.37,2013-05-28 23:20:00,
2013-05-28 19:25:00,63.8,45.9,30.15,ENE,69,0.0,1.0,52,0.00,CLR,,0.00,WeatherDisplay:10.37,2013-05-28 23:25:00,
2013-05-28 19:30:00,63.7,46.2,30.15,ENE,71,0.0,1.0,53,0.00,CLR,,0.00,WeatherDisplay:10.37,2013-05-28 23:30:00,
2013-05-28 19:35:00,63.5,47.5,30.15,ENE,71,0.0,0.0,56,0.00,CLR,,0.00,WeatherDisplay:10.37,2013-05-28 23:35:00,
2013-05-28 19:40:00,63.2,48.6,30.15,ENE,71,0.0,1.0,59,0.00,CLR,,0.00,WeatherDisplay:10.37,2013-05-28 23:40:00,
2013-05-28 19:45:00,62.8,51.2,30.14,ENE,72,0.0,0.0,66,0.00,CLR,,0.00,WeatherDisplay:10.37,2013-05-28 23:45:00,
2013-05-28 19:50:00,62.2,50.3,30.14,ENE,72,0.0,0.0,65,0.00,CLR,,0.00,WeatherDisplay:10.37,2013-05-28 23:50:00,
2013-05-28 19:55:00,61.8,48.2,30.15,ENE,72,0.0,0.0,61,0.00,CLR,,0.00,WeatherDisplay:10.37,2013-05-28 23:55:00,
2013-05-28 20:00:00,61.4,49.1,30.15,ENE,72,0.0,0.0,64,0.00,CLR,,0.00,WeatherDisplay:10.37,2013-05-29 00:00:00,
2013-05-28 20:05:00,61.0,49.1,30.15,ENE,72,0.0,0.0,65,0.00,CLR,,0.00,WeatherDisplay:10.37,2013-05-29 00:05:00,
2013-05-28 20:10:00,60.7,48.9,30.15,ENE,72,0.0,0.0,65,0.00,CLR,,0.00,WeatherDisplay:10.37,2013-05-29 00:10:00,
2013-05-28 20:15:00,60.4,49.4,30.14,ENE,72,0.0,0.0,67,0.00,CLR,,0.00,WeatherDisplay:10.37,2013-05-29 00:15:00,
2013-05-28 20:20:00,60.1,49.5,30.14,ENE,72,0.0,0.0,68,0.00,CLR,,0.00,WeatherDisplay:10.37,2013-05-29 00:20:00,
2013-05-28 20:25:00,59.6,50.6,30.15,ENE,72,0.0,0.0,72,0.00,CLR,,0.00,WeatherDisplay:10.37,2013-05-29 00:25:00,
2013-05-28 20:30:00,59.0,49.6,30.15,ENE,72,0.0,0.0,71,0.00,CLR,,0.00,WeatherDisplay:10.37,2013-05-29 00:30:00,
2013-05-28 20:40:00,58.1,49.5,30.15,ENE,72,0.0,0.0,73,0.00,CLR,,0.00,WeatherDisplay:10.37,2013-05-29 00:40:00,
2013-05-28 20:45:00,57.8,49.6,30.15,ENE,72,0.0,0.0,74,0.00,CLR,,0.00,WeatherDisplay:10.37,2013-05-29 00:45:00,
2013-05-28 20:50:00,57.5,49.6,30.15,ENE,72,0.0,0.0,75,0.00,CLR,,0.00,WeatherDisplay:10.37,2013-05-29 00:50:00,
2013-05-28 20:55:00,57.2,49.7,30.15,ENE,72,0.0,0.0,76,0.00,CLR,,0.00,WeatherDisplay:10.37,2013-05-29 00:55:00,
2013-05-28 21:05:00,56.4,49.3,30.16,ENE,72,0.0,0.0,77,0.00,CLR,,0.00,WeatherDisplay:10.37,2013-05-29 01:05:00,
2013-05-28 21:10:00,56.1,49.7,30.16,ENE,72,0.0,0.0,79,0.00,CLR,,0.00,WeatherDisplay:10.37,2013-05-29 01:10:00,
2013-05-28 21:15:00,55.8,49.0,30.16,ENE,72,0.0,0.0,78,0.00,CLR,,0.00,WeatherDisplay:10.37,2013-05-29 01:15:00,
2013-05-28 21:20:00,55.6,49.5,30.16,ENE,72,0.0,0.0,80,0.00,CLR,,0.00,WeatherDisplay:10.37,2013-05-29 01:20:00,
2013-05-28 21:25:00,55.3,49.3,30.16,ENE,72,0.0,0.0,80,0.00,CLR,,0.00,WeatherDisplay:10.37,2013-05-29 01:25:00,
2013-05-28 21:30:00,55.0,49.0,30.16,ENE,72,0.0,0.0,80,0.00,CLR,,0.00,WeatherDisplay:10.37,2013-05-29 01:30:00,
2013-05-28 21:35:00,54.8,49.7,30.16,ENE,72,0.0,0.0,83,0.00,CLR,,0.00,WeatherDisplay:10.37,2013-05-29 01:35:00,
2013-05-28 21:40:00,54.7,50.0,30.16,ENE,72,0.0,0.0,84,0.00,CLR,,0.00,WeatherDisplay:10.37,2013-05-29 01:40:00,
2013-05-28 21:45:00,54.5,49.8,30.16,ENE,72,0.0,2.0,84,0.00,CLR,,0.00,WeatherDisplay:10.37,2013-05-29 01:45:00,
2013-05-28 21:50:00,54.4,49.9,30.16,ENE,72,0.0,0.0,85,0.00,CLR,,0.00,WeatherDisplay:10.37,2013-05-29 01:50:00,
2013-05-28 21:55:00,54.1,49.4,30.17,ENE,72,0.0,0.0,84,0.00,CLR,,0.00,WeatherDisplay:10.37,2013-05-29 01:55:00,
2013-05-28 22:00:00,53.9,49.2,30.17,ENE,72,0.0,0.0,84,0.00,CLR,,0.00,WeatherDisplay:10.37,2013-05-29 02:00:00,
2013-05-28 22:05:00,53.8,49.7,30.17,ENE,72,0.0,0.0,86,0.00,CLR,,0.00,WeatherDisplay:10.37,2013-05-29 02:05:00,
2013-05-28 22:10:00,53.7,49.6,30.17,ENE,72,0.0,0.0,86,0.00,CLR,,0.00,WeatherDisplay:10.37,2013-05-29 02:10:00,
2013-05-28 22:15:00,53.6,49.8,30.17,ENE,72,0.0,0.0,87,0.00,CLR,,0.00,WeatherDisplay:10.37,2013-05-29 02:15:00,
2013-05-28 22:20:00,53.5,49.7,30.17,ENE,72,0.0,0.0,87,0.00,CLR,,0.00,WeatherDisplay:10.37,2013-05-29 02:20:00,
2013-05-28 22:25:00,53.4,49.6,30.17,ENE,72,0.0,0.0,87,0.00,CLR,,0.00,WeatherDisplay:10.37,2013-05-29 02:25:00,
2013-05-28 22:30:00,53.3,49.5,30.17,ENE,72,0.0,0.0,87,0.00,CLR,,0.00,WeatherDisplay:10.37,2013-05-29 02:30:00,
2013-05-28 22:35:00,53.2,49.4,30.17,ENE,72,0.0,0.0,87,0.00,CLR,,0.00,WeatherDisplay:10.37,2013-05-29 02:35:00,
2013-05-28 22:40:00,53.0,49.5,30.17,ENE,72,0.0,0.0,88,0.00,CLR,,0.00,WeatherDisplay:10.37,2013-05-29 02:40:00,
2013-05-28 22:45:00,52.8,49.0,30.17,ENE,72,0.0,0.0,87,0.00,CLR,,0.00,WeatherDisplay:10.37,2013-05-29 02:45:00,
2013-05-28 22:55:00,52.6,49.4,30.17,ENE,72,0.0,0.0,89,0.00,CLR,,0.00,WeatherDisplay:10.37,2013-05-29 02:55:00,
2013-05-28 23:00:00,52.5,49.3,30.17,ENE,72,0.0,0.0,89,0.00,CLR,,0.00,WeatherDisplay:10.37,2013-05-29 03:00:00,
2013-05-28 23:05:00,52.4,49.2,30.17,ENE,72,0.0,0.0,89,0.00,CLR,,0.00,WeatherDisplay:10.37,2013-05-29 03:05:00,
2013-05-28 23:10:00,52.2,49.1,30.17,ENE,72,0.0,0.0,89,0.00,CLR,,0.00,WeatherDisplay:10.37,2013-05-29 03:10:00,
2013-05-28 23:15:00,52.1,49.3,30.17,ENE,72,0.0,0.0,90,0.00,CLR,,0.00,WeatherDisplay:10.37,2013-05-29 03:15:00,
2013-05-28 23:20:00,51.9,49.1,30.17,ENE,72,0.0,0.0,90,0.00,CLR,,0.00,WeatherDisplay:10.37,2013-05-29 03:20:00,
2013-05-28 23:25:00,51.8,49.0,30.17,ENE,72,0.0,0.0,90,0.00,CLR,,0.00,WeatherDisplay:10.37,2013-05-29 03:25:00,
2013-05-28 23:30:00,51.6,48.8,30.17,ENE,72,0.0,0.0,90,0.00,CLR,,0.00,WeatherDisplay:10.37,2013-05-29 03:30:00,
2013-05-28 23:35:00,51.5,48.7,30.17,ENE,72,0.0,0.0,90,0.00,CLR,,0.00,WeatherDisplay:10.37,2013-05-29 03:35:00,
2013-05-28 23:40:00,51.4,48.9,30.17,ENE,72,0.0,0.0,91,0.00,CLR,,0.00,WeatherDisplay:10.37,2013-05-29 03:40:00,
2013-05-28 23:45:00,51.3,48.8,30.17,ENE,72,0.0,0.0,91,0.00,CLR,,0.00,WeatherDisplay:10.37,2013-05-29 03:45:00,
2013-05-28 23:50:00,51.2,48.7,30.17,ENE,72,0.0,0.0,91,0.00,CLR,,0.00,WeatherDisplay:10.37,2013-05-29 03:50:00,
2013-05-28 23:55:00,51.2,48.6,30.17,ENE,72,0.0,0.0,91,0.00,CLR,,0.00,WeatherDisplay:10.37,2013-05-29 03:55:00,